Location: NJAA Observatory
(40.6819°N, 74.8979°W)
Time: 02:59:07
(UTC-04:00)

Landsat 5 - Visible Passes

Search period start: 04 July 2015 00:00
Search period end: 14 July 2015 00:00
Orbit: 532 x 661 km, 98.0° (Epoch: 04 July)

Date Brightness Start Highest point End Pass type
(mag) Time Alt. Az. Time Alt. Az. Time Alt. Az.
04 Jul 3.7 00:07:36 59° NW 00:07:36 59° NW 00:11:00 10° NNW visible
04 Jul 5.7 22:41:04 11° ENE 22:41:51 12° ENE 22:43:25 10° NE visible
05 Jul 4.1 00:17:45 47° WNW 00:17:45 47° WNW 00:20:59 10° NNW visible
05 Jul 5.4 22:51:13 15° ENE 22:51:47 15° ENE 22:54:11 10° NNE visible
06 Jul 4.5 00:27:54 36° WNW 00:27:54 36° WNW 00:30:56 10° NNW visible
06 Jul 5.2 23:01:22 19° ENE 23:01:44 19° ENE 23:04:41 10° NNE visible
07 Jul 4.9 00:38:03 28° WNW 00:38:03 28° WNW 00:40:48 10° NNW visible
07 Jul 4.9 23:11:32 24° ENE 23:11:41 24° ENE 23:15:02 10° NNE visible
08 Jul 5.3 00:48:12 22° WNW 00:48:12 22° WNW 00:50:36 10° NW visible
08 Jul 4.5 23:21:40 31° ENE 23:21:40 31° ENE 23:25:19 10° N visible
09 Jul 5.6 00:58:21 17° WNW 00:58:21 17° WNW 01:00:18 10° NW visible
09 Jul 4.2 23:31:50 40° ENE 23:31:50 40° ENE 23:35:31 10° N visible
10 Jul 5.9 01:08:31 14° WNW 01:08:31 14° WNW 01:09:49 10° WNW visible
10 Jul 3.9 23:41:59 51° NE 23:41:59 51° NE 23:45:41 10° N visible
11 Jul 6.1 01:18:40 10° WNW 01:18:40 10° WNW 01:18:56 10° WNW visible
11 Jul 3.7 23:52:09 62° NNE 23:52:09 62° NNE 23:55:46 10° N visible
13 Jul 3.8 00:02:18 62° NNW 00:02:18 62° NNW 00:05:50 10° NNW visible
13 Jul 5.8 22:35:47 10° ENE 22:36:36 11° ENE 22:37:44 10° NE visible
